Regional Weather Roundup
Issued by NWS

Home | Current Version | Previous Version | Text Only | Print | Product List | Glossary Off
Versions: 1 2 3 4 5 6 7 8 9 10 11 12 13 14 15 16 17 18 19 20 21 22 23 24 25 26 27 28 29 30 31 32 33 34 35 36 37 38 39 40 41 42 43 44 45 46 47 48 49 50

000
ASUS43 KLOT 270007
RWRIL

ILLINOIS REGIONAL WEATHER ROUNDUP
NATIONAL WEATHER SERVICE CHICAGO/ROMEOVILLE IL
700 PM CDT SUN MAR 26 2017

NOTE: "FAIR" INDICATES FEW OR NO CLOUDS BELOW 12,000 FEET WITH NO
SIGNIFICANT WEATHER AND/OR OBSTRUCTIONS TO VISIBILITY.

* THESE STATIONS ARE NOT UNDER NWS QUALITY CONTROL. THEY ALSO MAY NOT
  REPORT WEATHER SUCH AS PRECIPITATION OR FOG.

ILZ001-002-007-009-015-016-024-270100-
NORTHWEST ILLINOIS

CITY           SKY/WX    TMP DP  RH WIND       PRES   REMARKS
MOLINE         CLOUDY    51  48  89 W10       29.88R FOG
6HR MIN TEMP:  51; 6HR MAX TEMP:  55;

STERLING*      LGT RAIN  52  51  97 VRB5      29.86R FOG
SAVANNA*       CLOUDY    52  50  92 NW6       29.86R FOG
$$

ILZ003-004-008-010-011-017-018-270100-
NORTH CENTRAL ILLINOIS

CITY           SKY/WX    TMP DP  RH WIND       PRES   REMARKS
ROCKFORD       LGT RAIN  54  52  93 W7        29.86R FOG
6HR MIN TEMP:  54; 6HR MAX TEMP:  59; 6HR PCP:  0.02;

FREEPORT*      CLOUDY    54  51  91 NW6       29.85R
ROCHELLE*      CLOUDY    52  51  96 SW10      29.86R
DE KALB*       FOG       53  52  97 SW8       29.85R VSB 1
PERU*          CLOUDY    49  48  96 W10       29.88R FOG
$$

ILZ005-006-012>014-019>023-270100-
NORTHEAST ILLINOIS

CITY           SKY/WX    TMP DP  RH WIND       PRES   REMARKS
CHICAGO-OHARE  CLOUDY    57  50  77 W12       29.83R
6HR MIN TEMP:  57; 6HR MAX TEMP:  62;

CHICAGO-MIDWAY CLOUDY    56  52  86 SW10      29.84R
6HR MIN TEMP:  56; 6HR MAX TEMP:  62;

AURORA         CLOUDY    54  52  93 SW9       29.85R FOG
6HR MIN TEMP:  54; 6HR MAX TEMP:  60; 6HR PCP: TRACE;

LANSING*       CLOUDY    56  52  89 SW12      29.86R
JOLIET*        DRIZZLE   55  54  97 SW5       29.86R
WAUKEGAN       CLOUDY    46  46 100 CALM      29.83R FOG
6HR MIN TEMP:  46; 6HR MAX TEMP:  53;

DUPAGE AIRPORT CLOUDY    54  53  97 SW10      29.84R
6HR MIN TEMP:  54; 6HR MAX TEMP:  60; 6HR PCP: TRACE;

KANKAKEE*      CLOUDY    55  50  83 SW8       29.88R
WHEELING       CLOUDY    56  53  90 SW6       29.85R
6HR MIN TEMP:  56; 6HR MAX TEMP:  62; 6HR PCP:  0.01;

MORRIS*        CLOUDY    53  52  95 CALM      29.85R FOG
ROMEOVILLE*    DRIZZLE   54  54 100 SW10      29.86R
$$

LMZ740>746-270100-
SOUTHERN LAKE MICHIGAN

STATION/POSITION SKY/WX   TEMP    WIND        PRES    VSBY  WAVE
                          AIR SEA DIR/SP/G                  HT/PER
                          (F)     (DEG/KT/KT) (MB)    (MI)  (FT/S)
HARRISON CRIB              57     240/ 10/ 11   N/A
BURNHAM HARBOR             56     250/  5/ 11   N/A
CALUMET HARBOR             57     220/  7/ 11 1009.9R
BURNS HARBOR               56     230/ 10/ 16 1011.2R
MICHIGAN CITY              52     220/  6/  6   N/A
$$

ILZ025>027-034>036-040-047-049-050-058-095>099-270100-
WEST-CENTRAL ILLINOIS

CITY           SKY/WX    TMP DP  RH WIND       PRES   REMARKS
QUINCY         CLOUDY    50  45  83 W8        29.92R
GALESBURG*     CLOUDY    49  46  91 SW7       29.90R
MACOMB*        CLOUDY    49  48  95 W10       29.93S FOG
JACKSONVILLE*  CLOUDY    52  48  86 W7        29.92R
PITTSFIELD*    CLOUDY    54  48  80 W5        29.93R
$$

ILZ028>032-037-038-041>044-048-051>054-059>061-270100-
CENTRAL ILLINOIS

CITY           SKY/WX    TMP DP  RH WIND       PRES   REMARKS
PONTIAC        CLOUDY    52  52  98 SW14      29.90R FOG
BLOOMINGTON    CLOUDY    50  48  93 W14       29.91R
DECATUR        CLOUDY    55  50  83 SW12      29.92R
PEORIA         CLOUDY    51  47  86 W9        29.91R
6HR MIN TEMP:  51; 6HR MAX TEMP:  55; 6HR PCP: TRACE;

LACON*         CLOUDY    50  48  94 SW10G17   29.89R
LINCOLN*       CLOUDY    54  51  89 W3        29.92R
SPRINGFIELD    CLOUDY    55  49  80 W10       29.92R
6HR MIN TEMP:  54; 6HR MAX TEMP:  58;

TAYLORVILLE    CLOUDY    55  48  76 W10       29.93R
$$

ILZ033-039-045-046-055>057-062-063-270100-
EAST-CENTRAL ILLINOIS

CITY           SKY/WX    TMP DP  RH WIND       PRES   REMARKS
CHAMPAIGN      CLOUDY    56  48  74 SW13      29.91R
RANTOUL*       CLOUDY    56  52  88 SW13G18   29.91R
MATTOON        CLOUDY    56  50  80 SW8       29.93R
PARIS*         CLOUDY    56  50  79 SW15      29.93R
$$

ILZ079-100>102-270100-
SOUTHWEST ILLINOIS

CITY           SKY/WX    TMP DP  RH WIND       PRES   REMARKS
ALTON          PTCLDY    57  50  77 W7        29.93R
BELLEVILLE     PTCLDY    59  52  76 S3        29.92S
CAHOKIA*       PTCLDY    61  49  64 CALM      29.92R
SPARTA*        CLOUDY    61  48  64 S5        29.95R
$$

ILZ064>066-069>071-074>076-080>082-084>086-088>090-092>094-270100-
SOUTH-CENTRAL ILLINOIS

CITY           SKY/WX    TMP DP  RH WIND       PRES   REMARKS
CARBONDALE     PTCLDY    57  49  74 S6        29.95R
6HR MIN TEMP:  57; 6HR MAX TEMP:  62;

CAIRO*         PTCLDY    61  53  73 CALM      29.96R
EFFINGHAM*     CLOUDY    57  51  80 SW6       29.96S
MARION         CLOUDY    61  48  63 SW5       29.97R
MT. VERNON     PTCLDY    57  49  74 S7        29.95R
CENTRALIA*     CLEAR     58  52  80 SW3       29.95R
SALEM*         MOCLDY    58  50  73 W5        29.95R
METROPOLIS*    CLOUDY    62  52  70 CALM      29.97R
$$

ILZ067-068-072-073-078-083-087-091-270100-
SOUTHEAST ILLINOIS

CITY           SKY/WX    TMP DP  RH WIND       PRES   REMARKS
LAWRENCEVILLE  CLOUDY    60  49  66 W12       29.95R
FLORA*         PTCLDY    58  51  77 W3        29.96R
FAIRFIELD*     MOCLDY    59  49  70 SW5       29.95R
HARRISBURG*    CLOUDY    58  49  69 NW5       29.96S
ROBINSON*      CLOUDY    57  50  76 W10       29.96R
CARMI*         CLEAR     58  48  69 W6        29.96R
$$

ABBREVIATIONS USED IN REMARKS
   TC - TEMPERATURE IN CELSIUS
  WCI - WIND CHILL INDEX
   HX - HEAT INDEX
  VSB - VISIBILITY
$$




USA.gov is the U.S. government's official web portal to all federal, state and local government web resources and services.